Theta_e
294 295 294 294 294 295 295 295 295 297 297 298 299 300 301 303 304 305 308 310 313 316 319 320 319 320 319 320 320 319 317 316 312 315 312 303 301 301 298 298 296 296 297
292 293 292 292 292 292 292 292 293 293 294 295 296 297 298 298 300 300 301 303 304 307 310 311 314 317 317 318 318 317 316 317 314 311 314 300 301 301 301 295 295 295 295
290 290 290 289 289 289 290 290 291 291 292 293 294 294 294 295 295 295 295 296 298 300 302 305 306 307 305 308 310 312 313 312 312 309 309 295 295 294 294 292 293 292 292
288 288 287 286 285 286 287 287 288 289 289 290 291 292 292 293 292 291 292 292 295 296 298 299 300 299 296 295 297 300 302 302 301 301 298 293 291 289 290 291 288 289 290
285 285 284 284 284 284 285 285 286 287 288 289 289 290 290 290 289 289 290 291 291 292 293 292 292 287 287 291 292 293 293 294 293 293 292 290 288 286 287 287 288 288 288
283 282 282 282 282 282 283 283 284 285 286 287 287 287 287 287 288 288 287 288 288 288 288 289 289 287 289 289 288 288 288 287 289 289 288 287 287 286 285 285 285 284 284
281 281 280 280 280 280 281 281 282 283 285 285 285 285 285 286 287 287 285 286 286 286 285 286 286 286 287 288 287 286 286 287 287 287 285 284 285 285 287 284 284 284 284
279 279 279 278 278 279 279 279 280 282 283 283 283 283 283 283 285 285 285 286 285 284 284 284 285 285 285 284 285 284 283 284 284 284 284 284 284 285 284 284 283 283 282
277 277 277 277 277 278 277 278 279 280 281 282 282 281 281 282 283 284 283 283 283 283 283 283 282 282 283 284 283 283 282 281 283 283 283 283 284 283 282 282 281 279 280
275 275 276 276 276 277 277 277 277 278 279 280 279 280 280 280 282 283 282 281 280 280 281 280 281 281 281 281 281 280 279 278 279 279 280 280 280 280 279 278 277 276 276
274 275 275 275 275 276 276 277 277 277 277 277 277 278 278 279 280 281 281 279 279 278 278 278 279 280 280 280 280 278 277 277 277 277 277 277 277 276 276 276 276 275 274
273 274 274 274 274 275 275 276 277 277 277 276 276 277 278 278 279 280 280 280 279 277 276 277 278 279 278 279 277 277 277 277 276 276 275 274 274 274 274 274 275 275 275
271 272 273 273 273 274 274 275 276 277 277 276 275 275 276 277 279 279 279 279 278 276 276 276 277 277 276 275 276 275 274 274 273 273 272 272 272 273 273 273 274 273 273
270 271 272 271 271 273 273 274 274 275 275 275 275 275 275 276 277 278 278 278 278 276 275 274 274 274 274 273 272 272 273 272 271 271 270 271 272 272 271 272 271 271 270
269 270 271 271 271 271 272 272 272 274 275 275 275 275 274 274 276 278 278 276 276 275 272 272 271 271 270 270 270 270 271 270 269 269 269 269 270 270 270 271 270 269 268
269 270 270 269 269 269 269 270 273 273 274 275 275 274 275 276 277 277 277 276 275 273 269 268 268 268 268 268 268 267 268 268 268 268 268 268 268 268 268 268 269 268 267
266 267 268 268 268 268 267 267 267 270 271 272 272 272 274 274 275 276 275 274 271 270 267 266 266 266 266 266 266 266 266 267 266 267 267 267 267 266 266 266 267 267 267
264 264 266 267 267 266 266 266 266 266 265 267 269 269 271 271 273 273 272 270 267 266 265 264 264 264 264 264 265 264 265 265 265 265 265 265 265 265 265 265 266 265 266
265 266 266 266 266 265 265 265 265 265 265 265 266 267 267 268 270 270 268 264 263 264 264 263 264 263 263 263 263 263 263 263 262 262 263 263 264 264 263 264 264 263 263
265 262 263 264 264 264 265 264 264 264 264 264 264 264 264 265 266 265 265 263 263 263 263 263 263 263 263 262 262 262 262 262 263 263 263 263 264 264 263 263 264 264 264
264 263 260 262 263 263 263 262 262 262 262 262 262 263 267 266 264 262 262 262 262 262 262 262 262 262 262 262 261 261 261 262 262 261 262 262 262 262 263 263 263 263 263
262 262 262 261 261 261 261 261 260 260 260 260 261 262 264 261 261 261 262 262 262 262 261 261 260 261 261 260 261 260 260 260 261 261 261 261 261 262 262 262 262 262 263
260 260 260 260 260 258 259 260 259 259 260 260 260 260 260 260 260 261 261 261 261 261 261 260 259 259 260 260 260 260 259 259 260 261 260 260 260 261 261 262 261 261 262
258 258 258 258 258 258 258 259 259 258 257 258 259 259 259 259 259 259 259 260 260 260 260 259 258 257 258 258 259 260 260 259 259 259 258 258 258 259 260 260 261 261 262
257 257 257 257 257 257 257 258 258 258 258 258 259 259 259 259 259 259 260 259 258 257 258 258 258 258 257 257 257 257 258 258 257 258 258 258 258 258 259 259 260 261 261
257 257 256 256 256 256 257 257 257 258 257 258 258 258 258 258 258 258 258 257 257 257 257 257 257 257 257 257 258 258 259 261 261 261 262 262 261 262 262 263 263 264 265
Wind_Speed
12 11 11 12 12 11 11 11 12 13 13 13 13 14 14 14 13 12 13 13 13 12 12 13 14 13 11 11 10 11 12 11 14 13 5 4 4 5 5 5 7 4 4
12 11 11 11 11 11 11 12 12 12 12 13 13 14 14 14 15 15 15 14 15 15 13 13 14 10 13 13 10 13 11 13 11 18 10 5 9 8 10 10 8 7 8
12 12 12 12 13 13 13 13 13 13 13 12 12 12 13 13 13 14 15 16 16 15 15 14 13 11 12 10 11 10 8 8 8 8 9 1 2 2 1 3 3 1 4
12 12 12 13 13 13 13 13 13 13 13 13 12 11 11 12 13 15 15 15 15 14 14 14 14 13 12 11 9 10 9 8 4 5 2 2 1 2 2 6 4 2 6
10 10 11 11 12 12 12 12 12 12 12 12 12 11 11 10 11 16 14 13 13 13 12 11 10 11 11 13 7 8 8 6 4 4 3 1 0 2 2 2 2 0 3
9 9 9 11 11 11 12 13 12 12 11 11 11 11 11 8 20 21 17 11 11 11 11 10 10 11 11 12 16 18 16 9 7 3 3 2 4 3 1 2 3 1 2
9 10 10 11 12 12 12 11 11 11 11 10 11 11 11 11 22 22 19 9 9 10 11 11 11 9 12 10 9 11 14 17 16 7 7 7 4 5 3 1 1 1 2
9 10 10 11 11 11 12 11 11 10 10 9 9 10 10 9 21 22 21 11 9 10 11 12 11 12 14 12 9 7 9 12 12 9 9 8 7 6 5 3 2 2 3
10 10 11 11 12 11 11 12 11 10 9 8 8 9 10 10 19 21 18 11 11 11 10 11 12 11 17 18 9 7 6 8 9 12 13 12 14 17 14 4 4 3 2
9 10 10 10 10 10 11 11 10 9 8 7 8 8 9 10 16 19 17 9 11 9 8 10 14 13 18 18 10 9 7 9 9 7 6 7 9 10 13 8 6 5 4
8 9 9 9 9 9 10 8 9 9 8 8 7 6 7 9 11 18 19 10 9 8 8 8 8 16 16 16 15 10 10 8 9 6 6 6 7 7 7 7 7 4 3
8 8 8 8 7 7 8 8 8 8 8 8 8 7 6 7 10 14 17 17 15 8 8 7 8 14 13 15 12 14 13 10 6 6 6 6 7 7 7 7 6 5 5
7 6 7 7 7 7 8 8 8 8 7 8 8 7 7 7 7 13 15 15 15 9 8 11 13 12 12 9 13 14 10 7 7 6 7 7 6 5 7 6 6 6 7
6 6 6 6 8 7 6 6 6 7 8 7 7 8 8 8 8 8 7 8 9 9 10 7 9 9 8 8 7 8 6 6 6 6 6 6 6 6 6 6 6 6 7
6 6 6 6 7 7 6 6 6 7 8 9 7 8 8 8 8 13 12 8 8 10 7 5 5 6 6 6 6 6 6 6 6 6 6 6 6 6 6 6 5 7 6
7 5 5 6 6 6 7 8 8 9 13 12 12 10 8 12 17 15 15 15 14 14 3 4 5 5 6 6 6 6 6 6 6 6 6 6 6 6 7 7 6 6 7
6 7 6 5 6 7 7 7 9 9 11 10 11 13 14 12 16 14 15 14 10 8 3 4 5 5 6 6 6 6 6 6 7 6 6 6 6 7 7 7 7 7 8
5 6 5 5 6 6 6 7 6 7 9 8 9 12 10 13 14 13 13 10 4 4 3 4 5 5 6 6 6 6 7 7 6 6 6 6 6 7 8 8 8 8 9
5 5 5 5 6 6 6 7 6 7 7 7 8 7 8 14 12 10 8 3 4 5 5 5 5 5 6 6 6 7 7 7 7 7 7 6 7 7 8 8 9 10 10
4 6 5 6 6 6 6 6 7 6 7 6 7 7 7 7 7 7 5 4 5 5 6 6 6 6 7 7 7 7 7 7 7 7 7 7 7 7 9 9 9 10 9
5 5 4 5 6 6 6 6 6 6 7 7 7 7 15 8 7 6 6 5 5 6 6 6 7 7 7 7 7 7 8 8 7 7 8 8 8 8 9 10 10 9 10
4 5 5 5 6 6 6 6 6 6 7 7 8 8 13 5 6 6 6 6 6 6 6 6 7 7 7 7 8 8 9 9 9 8 9 7 8 9 9 10 10 10 10
5 6 6 5 5 6 7 6 6 7 8 8 8 8 7 7 6 7 7 7 6 6 6 6 7 7 7 7 7 8 9 9 9 8 9 9 9 9 9 10 10 11 11
4 5 5 5 5 6 6 7 7 7 7 8 8 8 7 7 7 8 8 7 7 7 6 6 7 9 9 8 8 8 8 9 8 9 11 10 10 11 10 10 11 14 13
4 4 5 5 5 6 6 6 7 7 7 7 8 7 7 8 8 8 8 7 6 7 8 7 7 10 12 13 13 14 14 16 13 13 9 12 14 16 13 12 14 14 16
5 5 5 5 6 6 6 7 7 7 8 8 8 8 8 8 8 8 8 7 7 7 9 7 9 13 14 12 14 15 16 17 15 15 11 12 13 13 12 15 19 14 17
Wind_Direction
11 8 9 5 2 1 2 358 352 342 343 339 337 333 331 330 328 321 312 305 300 297 294 281 274 271 266 262 256 251 255 250 254 265 256 165 185 197 185 180 141 180 184
1 359 4 1 359 1 357 352 348 344 341 339 336 335 333 333 332 328 323 319 310 303 301 302 298 294 274 273 267 262 254 256 255 260 249 206 211 211 200 178 174 193 197
355 356 359 360 357 354 352 348 347 345 341 341 341 340 339 340 343 341 329 321 313 307 304 302 302 310 307 308 308 299 283 268 266 261 268 93 170 144 336 143 192 112 302
349 354 356 355 350 348 345 345 344 344 342 342 343 346 352 349 352 342 334 326 321 320 321 321 325 332 328 321 309 306 306 296 286 264 244 228 208 55 129 203 228 201 156
346 350 350 345 344 343 344 344 342 343 341 342 345 352 358 1 358 347 341 336 339 339 346 355 3 354 339 354 330 333 336 319 315 320 314 350 156 118 260 22 310 304 104
343 345 344 342 341 342 341 341 341 343 344 346 352 352 357 3 358 357 353 345 350 355 355 357 3 5 1 19 28 37 36 13 357 351 349 3 8 356 60 123 122 34 274
347 347 345 344 340 340 336 337 339 340 340 347 353 355 353 358 358 358 353 352 359 7 8 2 359 3 3 357 11 27 33 35 41 28 45 20 32 23 343 101 110 224 245
347 344 345 342 338 337 336 339 337 337 337 342 350 353 349 352 355 357 354 348 355 4 11 10 1 4 6 357 358 21 33 36 29 31 40 35 35 16 18 0 333 289 256
348 343 342 339 336 337 340 337 335 332 336 339 342 350 349 350 355 0 359 354 351 351 359 14 8 11 4 3 3 6 35 29 28 34 39 43 45 46 33 346 6 336 312
344 338 337 339 338 340 341 337 336 329 326 332 338 351 354 352 357 3 7 359 353 351 354 2 9 3 5 10 13 3 0 10 358 8 30 45 44 45 48 44 15 11 2
335 335 341 344 336 335 331 330 334 339 341 344 347 347 348 357 357 6 6 1 357 348 348 354 357 359 10 12 22 19 14 2 4 12 18 21 25 24 22 23 18 5 344
334 331 336 337 334 330 324 325 329 338 342 348 344 343 351 354 0 8 6 9 2 348 352 348 348 359 358 9 16 14 10 8 5 10 16 19 12 11 5 357 349 341 330
328 325 329 331 331 329 326 324 326 334 339 344 340 341 342 346 343 354 354 357 1 359 348 341 342 347 359 9 7 11 12 12 10 12 13 5 353 350 337 344 338 333 317
321 330 332 330 334 332 325 325 321 322 324 328 329 331 333 335 335 345 349 347 354 348 345 339 343 347 358 1 1 9 11 12 359 7 358 341 338 349 342 345 335 338 321
320 322 329 328 331 325 322 316 317 309 318 312 320 323 324 328 324 336 347 345 343 350 340 343 350 354 353 358 358 359 359 360 5 357 345 344 341 334 330 334 326 325 315
318 324 328 320 323 318 317 316 313 311 321 317 326 320 315 321 318 337 338 347 341 352 348 346 350 348 343 342 345 342 343 347 352 336 335 334 328 324 321 318 311 309 307
313 313 314 310 316 318 319 318 320 325 319 320 333 333 320 324 320 332 335 343 339 358 356 345 337 335 331 332 330 328 325 329 323 319 321 319 315 310 306 309 306 303 300
295 285 292 304 305 307 308 309 308 310 317 317 326 328 331 328 324 333 339 333 335 351 340 326 321 323 320 318 318 319 316 315 315 316 311 306 301 300 303 300 300 300 300
300 301 307 301 298 301 299 300 297 300 302 306 315 320 337 327 321 336 348 342 323 318 322 314 313 307 308 309 309 306 304 303 309 303 300 298 297 297 295 294 293 289 288
284 275 292 300 303 301 300 299 301 304 305 305 306 313 321 306 324 328 325 317 308 304 306 301 303 300 299 299 298 297 296 296 299 297 298 297 294 288 286 287 287 290 288
298 298 299 291 292 297 296 295 300 300 299 300 298 303 301 326 312 305 304 300 297 296 298 299 299 294 290 290 291 290 289 292 294 292 291 291 290 285 282 283 283 279 277
293 296 299 295 297 294 294 295 293 294 294 295 300 300 310 303 293 293 293 291 290 287 285 284 285 283 285 286 289 288 287 285 287 286 285 281 281 280 277 279 278 276 275
292 297 298 297 294 296 290 289 289 291 294 294 296 299 302 297 294 292 293 293 291 288 286 281 283 283 282 277 273 273 276 276 279 284 282 283 279 276 276 277 278 277 274
288 291 296 299 298 299 294 298 297 287 285 290 291 291 291 292 291 292 290 292 294 292 289 283 276 276 285 282 282 276 268 265 271 271 272 269 272 277 272 271 270 271 273
273 281 286 290 292 293 294 289 290 291 291 289 290 291 292 292 291 291 293 290 287 291 288 282 276 279 280 280 278 278 275 276 269 269 271 266 264 268 267 267 268 270 269
268 272 278 281 277 277 280 288 292 292 290 293 292 292 292 292 291 292 293 289 287 286 285 279 279 280 283 285 283 282 284 285 282 274 260 258 261 264 261 261 265 264 269